TimeEDT,TemperatureF,Dew PointF,Humidity,Sea Level PressureIn,VisibilityMPH,Wind Direction,Wind SpeedMPH,Gust SpeedMPH,PrecipitationIn,Events,Conditions,WindDirDegrees,DateUTC
12:51 AM,48.0,46.0,93,30.25,5.0,Calm,Calm,-,N/A,,Clear,0,2012-10-05 04:51:00
1:51 AM,48.0,46.9,96,30.25,4.0,Calm,Calm,-,N/A,,Clear,0,2012-10-05 05:51:00
2:14 AM,48.2,46.4,93,30.24,1.5,Calm,Calm,-,N/A,,Clear,0,2012-10-05 06:14:00
2:22 AM,46.4,46.4,100,30.24,0.5,Calm,Calm,-,N/A,Fog,Fog,0,2012-10-05 06:22:00
2:28 AM,48.2,46.4,93,30.24,2.5,Calm,Calm,-,N/A,,Clear,0,2012-10-05 06:28:00
2:35 AM,48.2,46.4,93,30.24,5.0,Calm,Calm,-,N/A,,Clear,0,2012-10-05 06:35:00
2:51 AM,46.9,45.0,93,30.25,2.0,Calm,Calm,-,N/A,,Clear,0,2012-10-05 06:51:00
3:27 AM,46.4,44.6,93,30.23,0.8,Calm,Calm,-,N/A,,Clear,0,2012-10-05 07:27:00
3:43 AM,46.4,44.6,93,30.23,2.0,Calm,Calm,-,N/A,,Clear,0,2012-10-05 07:43:00
3:51 AM,46.0,45.0,96,30.23,3.0,Calm,Calm,-,N/A,,Clear,0,2012-10-05 07:51:00
4:47 AM,46.4,44.6,93,30.22,1.8,Calm,Calm,-,N/A,,Clear,0,2012-10-05 08:47:00
4:51 AM,46.0,44.1,93,30.22,1.8,Calm,Calm,-,N/A,,Clear,0,2012-10-05 08:51:00
5:03 AM,46.4,44.6,93,30.22,2.5,Calm,Calm,-,N/A,,Clear,0,2012-10-05 09:03:00
5:11 AM,46.4,44.6,93,30.22,3.0,Calm,Calm,-,N/A,,Clear,0,2012-10-05 09:11:00
5:16 AM,46.4,44.6,93,30.22,1.8,Calm,Calm,-,N/A,,Clear,0,2012-10-05 09:16:00
5:29 AM,44.6,44.6,100,30.22,3.0,Calm,Calm,-,N/A,,Clear,0,2012-10-05 09:29:00
5:51 AM,45.0,44.1,97,30.22,4.0,Calm,Calm,-,N/A,,Clear,0,2012-10-05 09:51:00
6:29 AM,44.6,42.8,93,30.21,2.5,Calm,Calm,-,N/A,,Clear,0,2012-10-05 10:29:00
6:37 AM,44.6,44.6,100,30.22,4.0,Calm,Calm,-,N/A,,Clear,0,2012-10-05 10:37:00
6:51 AM,45.0,43.0,93,30.24,3.0,Calm,Calm,-,N/A,,Clear,0,2012-10-05 10:51:00
7:06 AM,44.6,42.8,93,30.23,2.5,Calm,Calm,-,N/A,,Clear,0,2012-10-05 11:06:00
7:15 AM,44.6,42.8,93,30.23,3.0,Calm,Calm,-,N/A,,Clear,0,2012-10-05 11:15:00
7:29 AM,44.6,42.8,93,30.23,2.0,Calm,Calm,-,N/A,,Clear,0,2012-10-05 11:29:00
7:37 AM,44.6,42.8,93,30.24,1.8,Calm,Calm,-,N/A,,Clear,0,2012-10-05 11:37:00
7:47 AM,44.6,44.6,100,30.24,2.5,Calm,Calm,-,N/A,,Clear,0,2012-10-05 11:47:00
7:51 AM,46.0,44.1,93,30.26,3.0,Calm,Calm,-,N/A,,Clear,0,2012-10-05 11:51:00
8:51 AM,48.9,46.9,93,30.26,6.0,Calm,Calm,-,N/A,,Scattered Clouds,0,2012-10-05 12:51:00
9:51 AM,53.1,50.0,89,30.26,8.0,Calm,Calm,-,N/A,,Mostly Cloudy,0,2012-10-05 13:51:00
10:51 AM,63.0,55.9,78,30.22,10.0,Calm,Calm,-,N/A,,Mostly Cloudy,0,2012-10-05 14:51:00
11:38 AM,66.2,55.4,68,30.19,10.0,Calm,Calm,-,N/A,,Mostly Cloudy,0,2012-10-05 15:38:00
11:51 AM,66.9,54.0,63,30.19,10.0,West,3.5,-,N/A,,Mostly Cloudy,280,2012-10-05 15:51:00
12:51 PM,69.1,54.0,58,30.16,10.0,NW,5.8,-,N/A,,Mostly Cloudy,310,2012-10-05 16:51:00
1:51 PM,73.0,52.0,48,30.13,10.0,Variable,5.8,-,0.01,,Mostly Cloudy,0,2012-10-05 17:51:00
2:51 PM,72.0,50.0,46,30.12,10.0,WSW,8.1,-,N/A,,Mostly Cloudy,250,2012-10-05 18:51:00
3:51 PM,73.0,51.1,46,30.10,10.0,West,8.1,-,N/A,,Clear,280,2012-10-05 19:51:00
4:51 PM,72.0,48.9,44,30.08,10.0,West,6.9,-,N/A,,Clear,270,2012-10-05 20:51:00
5:51 PM,71.1,51.1,49,30.06,10.0,Calm,Calm,-,N/A,,Clear,0,2012-10-05 21:51:00
6:51 PM,63.0,53.1,70,30.08,10.0,Calm,Calm,-,N/A,,Clear,0,2012-10-05 22:51:00
7:51 PM,57.0,52.0,83,30.08,10.0,Calm,Calm,-,N/A,,Clear,0,2012-10-05 23:51:00
8:51 PM,54.0,51.1,90,30.08,9.0,Calm,Calm,-,N/A,,Clear,0,2012-10-06 00:51:00
9:51 PM,52.0,50.0,93,30.06,7.0,Calm,Calm,-,N/A,,Clear,0,2012-10-06 01:51:00
10:51 PM,51.1,48.9,92,30.03,5.0,Calm,Calm,-,N/A,,Clear,0,2012-10-06 02:51:00
11:51 PM,48.9,48.0,97,30.01,4.0,Calm,Calm,-,N/A,,Clear,0,2012-10-06 03:51:00